Location: Kitt Peak
(31.9633°N, 111.6000°W)
Time: 14:35:19
(UTC-07:00)

Amateur Radio Satellites - All Passes

Search period start: 21 October 2014 14:05
Search period end: 22 October 2014 14:05
Location: Kitt Peak, 31.9633°N, 111.6000°W

Satellite Date Start Highest point End Downlink Frequencies (MHz)
Time Altitude Azimuth
ISS 21 Oct 14:08:24 14:10:56 20° 324° (NW) 14:13:28 145.800 FM
Uribyol 2 21 Oct 14:15:08 14:20:15 60° 259° (WSW) 14:25:26 436.500 FM
Gurwin Techsat 1B 21 Oct 14:18:15 14:23:29 66° 75° (ENE) 14:28:45 435.225 FM
ITAMSAT 1 21 Oct 14:20:14 14:25:20 57° 259° (W) 14:30:28 435.822 SSB
AO-Echo 21 Oct 14:27:48 14:32:08 34° 262° (W) 14:36:37 ?
TMSAT-1 21 Oct 14:31:55 14:37:09 65° 75° (ENE) 14:42:24 436.925 FM
KITSAT 1 21 Oct 14:35:20 14:40:13 17° 315° (NW) 14:45:07 435.175 FM
UOSAT-12 21 Oct 14:46:52 14:51:25 69° 116° (ESE) 14:56:04 437.025 FM, 437.400 FM
SO-50 21 Oct 14:47:04 14:48:42 12° 312° (NW) 14:50:22 436.795 FM
Sapphire 21 Oct 14:58:11 15:02:56 32° 252° (WSW) 15:07:39 437.095 MHz 1200 baud AX-25 AFSK
AO-27 21 Oct 15:06:36 15:10:14 19° 265° (W) 15:13:53 436.795 MHz FM
PCSat 21 Oct 15:22:17 15:25:41 17° 255° (WSW) 15:29:05 145.825 MHz
AO-7 21 Oct 15:23:50 15:31:48 55° 68° (ENE) 15:39:47 29.400 - 29.500 MHz
Gurwin Techsat 1B 21 Oct 16:02:13 16:03:48 11° 268° (W) 16:05:24 435.225 FM
JAS-2 21 Oct 16:03:52 16:07:29 17° 62° (ENE) 16:11:20 435.800 - 435.900 CW/SSB, 435.910 FM
Uosat F 21 Oct 16:08:39 16:13:39 84° 76° (ENE) 16:18:42 435.120 FM
TMSAT-1 21 Oct 16:15:44 16:17:25 11° 268° (W) 16:19:06 436.925 FM
UOSAT-12 21 Oct 16:30:06 16:32:01 12° 312° (NW) 16:33:57 437.025 FM, 437.400 FM
Hamsat 21 Oct 16:31:06 16:33:07 13° 69° (ENE) 16:35:09 145.90 MHz
Saudisat 1A 21 Oct 16:47:53 16:51:42 28° 56° (NE) 16:55:29 436.775 MHz
AO-7 21 Oct 17:18:06 17:24:47 27° 263° (W) 17:31:30 29.400 - 29.500 MHz
OPAL 21 Oct 17:42:33 17:47:32 88° 105° (ESE) 17:52:28 ?
JAS-2 21 Oct 17:46:23 17:51:50 56° 261° (W) 17:57:59 435.800 - 435.900 CW/SSB, 435.910 FM
Hamsat 21 Oct 18:04:44 18:08:42 39° 261° (W) 18:12:39 145.90 MHz
Saudisat 1A 21 Oct 18:27:38 18:31:05 23° 249° (WSW) 18:34:31 436.775 MHz
SO-67 21 Oct 18:35:51 18:39:09 46° 76° (ENE) 18:42:27 435.3500 MHz FM
STRAND 1 21 Oct 19:21:14 19:26:25 87° 284° (WNW) 19:31:33 ?
HO-68 21 Oct 19:52:28 19:58:53 37° 67° (ENE) 20:05:19 435.675 MHz FM
RS-15 21 Oct 20:23:33 20:30:06 18° 101° (E) 20:36:32 29.354 - 29.394 USB, Beacon 29.352 USB
KITSAT 1 21 Oct 20:35:28 20:41:26 22° 48° (NE) 20:47:21 435.175 FM
ISS 21 Oct 20:39:58 20:43:11 45° 42° (NE) 20:46:23 145.800 FM
ZACube-1 21 Oct 20:49:48 20:51:12 11° 67° (ENE) 20:52:36 437.345 MHz
UKube-1 21 Oct 20:58:37 21:02:40 41° 73° (ENE) 21:06:46 145.840 MHz, 145.915 MHz
FUNcube-1 21 Oct 21:32:16 21:36:27 35° 73° (ENE) 21:40:37 145.950 - 145.970 MHz USB
HO-68 21 Oct 21:40:08 21:46:28 34° 262° (W) 21:52:52 435.675 MHz FM
SO-50 21 Oct 21:40:16 21:43:42 19° 52° (NE) 21:47:09 436.795 FM
Oscar 11 21 Oct 21:43:00 21:47:18 64° 259° (W) 21:51:36 145.825 FM, Beacon 2401.500 USB
ISS 21 Oct 22:18:19 22:19:32 12° 235° (SW) 22:20:45 145.800 FM
ZACube-1 21 Oct 22:22:31 22:27:04 57° 260° (W) 22:31:35 437.345 MHz
KITSAT 1 21 Oct 22:29:30 22:37:34 76° 247° (WSW) 22:45:35 435.175 FM
RS-15 21 Oct 22:29:52 22:40:59 87° 297° (WNW) 22:51:57 29.354 - 29.394 USB, Beacon 29.352 USB
UKube-1 21 Oct 22:37:00 22:38:59 13° 266° (W) 22:40:59 145.840 MHz, 145.915 MHz
FUNcube-1 21 Oct 23:09:51 23:12:51 17° 265° (W) 23:15:50 145.950 - 145.970 MHz USB
SO-50 21 Oct 23:19:49 23:24:26 44° 247° (WSW) 23:29:04 436.795 FM
UOSAT-12 21 Oct 23:22:14 23:25:21 17° 51° (NE) 23:28:26 437.025 FM, 437.400 FM
MaSat-1 21 Oct 23:38:21 23:42:39 56° 110° (ESE) 23:46:37 437.345 MHz
Oscar 16 22 Oct 00:42:30 00:44:25 12° 93° (E) 00:46:20 437.025 USB, Beacon 2401.1428
RS-15 22 Oct 00:46:59 00:54:57 22° 320° (NW) 01:02:58 29.354 - 29.394 USB, Beacon 29.352 USB
UOSAT-12 22 Oct 01:01:14 01:05:42 45° 246° (WSW) 01:10:04 437.025 FM, 437.400 FM
MaSat-1 22 Oct 01:17:49 01:18:32 10° 301° (WNW) 01:19:15 437.345 MHz
Oscar 19 22 Oct 01:33:55 01:38:48 45° 100° (E) 01:43:40 437.125 CW, 437.150 USB
Oscar 10/S400 22 Oct 01:35:22 02:38:43 20° 250° (WSW) 04:50:11 145.825 - 145.975 CW/USB, Beacon 145.810 USB
JAS-1B 22 Oct 01:41:09 01:47:44 49° 102° (ESE) 01:55:32 435.800 - 435.900 CW/SSB
AO-27 22 Oct 01:44:29 01:48:26 22° 96° (E) 01:52:21 436.795 MHz FM
Oscar 16 22 Oct 02:19:02 02:24:04 59° 286° (WNW) 02:29:04 437.025 USB, Beacon 2401.1428
Uribyol 2 22 Oct 02:32:49 02:38:02 74° 102° (ESE) 02:43:12 436.500 FM
PCSat 22 Oct 02:34:43 02:36:39 12° 103° (ESE) 02:38:36 145.825 MHz
ITAMSAT 1 22 Oct 02:38:00 02:43:15 78° 103° (ESE) 02:48:27 435.822 SSB
AO-Echo 22 Oct 02:39:04 02:44:23 75° 284° (WNW) 02:49:40 ?
Gurwin Techsat 1B 22 Oct 02:39:42 02:44:40 39° 99° (E) 02:49:36 435.225 FM
TMSAT-1 22 Oct 02:53:00 02:57:57 39° 99° (E) 03:02:51 436.925 FM
Oscar 19 22 Oct 03:14:30 03:17:44 17° 293° (WNW) 03:20:58 437.125 CW, 437.150 USB
AO-27 22 Oct 03:23:13 03:27:57 36° 289° (WNW) 03:32:39 436.795 MHz FM
AO-7 22 Oct 03:32:00 03:38:18 23° 96° (E) 03:44:34 29.400 - 29.500 MHz
JAS-1B 22 Oct 03:32:44 03:38:06 26° 291° (WNW) 03:44:14 435.800 - 435.900 CW/SSB
Sapphire 22 Oct 03:51:09 03:56:30 69° 112° (ESE) 04:01:53 437.095 MHz 1200 baud AX-25 AFSK
PCSat 22 Oct 04:14:03 04:19:24 67° 296° (WNW) 04:24:48 145.825 MHz
Uribyol 2 22 Oct 04:15:35 04:16:48 11° 297° (WNW) 04:18:00 436.500 FM
Gurwin Techsat 1B 22 Oct 04:20:27 04:24:17 21° 292° (WNW) 04:28:08 435.225 FM
ITAMSAT 1 22 Oct 04:21:24 04:22:00 10° 297° (WNW) 04:22:36 435.822 SSB
Uosat F 22 Oct 04:21:34 04:26:16 38° 99° (E) 04:30:56 435.120 FM
TMSAT-1 22 Oct 04:33:40 04:37:32 21° 292° (WNW) 04:41:24 436.925 FM
OPAL 22 Oct 04:52:28 04:57:39 90° 256° (WSW) 05:02:48 ?
JAS-2 22 Oct 05:00:09 05:06:54 31° 95° (E) 05:13:34 435.800 - 435.900 CW/SSB, 435.910 FM
AO-7 22 Oct 05:23:15 05:31:24 62° 291° (WNW) 05:39:34 29.400 - 29.500 MHz
RS-15 22 Oct 05:26:34 05:33:35 18° 35° (NE) 05:40:42 29.354 - 29.394 USB, Beacon 29.352 USB
Sapphire 22 Oct 05:37:30 05:40:24 14° 309° (NW) 05:43:18 437.095 MHz 1200 baud AX-25 AFSK
Hamsat 22 Oct 05:54:52 05:58:57 49° 100° (E) 06:03:02 145.90 MHz
Uosat F 22 Oct 06:01:11 06:04:43 19° 293° (WNW) 06:08:14 435.120 FM
STRAND 1 22 Oct 06:32:11 06:37:18 82° 76° (ENE) 06:42:27 ?
JAS-2 22 Oct 06:44:33 06:51:54 48° 289° (WNW) 06:59:16 435.800 - 435.900 CW/SSB, 435.910 FM
AO-40 22 Oct 06:47:46 23:17:17 52° 183° (S) 08:04:00 Beacon 2401.320
Saudisat 1A 22 Oct 06:50:08 06:53:30 22° 110° (ESE) 06:56:53 436.775 MHz
Hamsat 22 Oct 07:33:42 07:34:25 10° 293° (WNW) 07:35:07 145.90 MHz
PANSAT 22 Oct 07:34:05 07:37:05 22° 161° (SSE) 07:40:05 not established
SO-67 22 Oct 07:36:28 07:39:54 68° 283° (WNW) 07:43:18 435.3500 MHz FM
RS-15 22 Oct 07:37:09 07:48:23 69° 60° (ENE) 08:00:05 29.354 - 29.394 USB, Beacon 29.352 USB
Saudisat 1A 22 Oct 08:29:06 08:32:53 28° 304° (NW) 08:36:41 436.775 MHz
UKube-1 22 Oct 08:54:47 08:55:15 10° 93° (E) 08:55:43 145.840 MHz, 145.915 MHz
HO-68 22 Oct 09:12:09 09:19:17 62° 103° (ESE) 09:26:21 435.675 MHz FM
PANSAT 22 Oct 09:13:14 09:16:53 45° 173° (S) 09:20:33 not established
MaSat-1 22 Oct 09:30:30 09:32:28 20° 62° (ENE) 09:34:21 437.345 MHz
Oscar 11 22 Oct 09:35:44 09:39:36 32° 98° (E) 09:43:26 145.825 FM, Beacon 2401.500 USB
RS-15 22 Oct 09:50:58 09:59:51 28° 256° (WSW) 10:09:05 29.354 - 29.394 USB, Beacon 29.352 USB
ZACube-1 22 Oct 10:17:04 10:21:02 38° 98° (E) 10:24:55 437.345 MHz
UKube-1 22 Oct 10:27:25 10:31:40 51° 286° (WNW) 10:35:53 145.840 MHz, 145.915 MHz
PANSAT 22 Oct 10:53:09 10:56:50 46° 186° (S) 11:00:31 not established
KITSAT 1 22 Oct 10:58:39 11:04:59 26° 105° (ESE) 11:11:19 435.175 FM
HO-68 22 Oct 11:01:13 11:06:21 22° 298° (WNW) 11:11:29 435.675 MHz FM
FUNcube-1 22 Oct 11:02:22 11:06:31 54° 285° (WNW) 11:10:34 145.950 - 145.970 MHz USB
Oscar 11 22 Oct 11:12:46 11:15:29 17° 291° (WNW) 11:18:12 145.825 FM, Beacon 2401.500 USB
Oscar 10/S400 22 Oct 11:35:29 12:00:43 37° 153° (SSE) 12:17:39 145.825 - 145.975 CW/USB, Beacon 145.810 USB
ISS 22 Oct 11:43:16 11:45:19 15° 127° (SE) 11:47:22 145.800 FM
SO-50 22 Oct 11:51:39 11:54:12 15° 108° (ESE) 11:56:47 436.795 FM
ZACube-1 22 Oct 11:55:00 11:57:02 13° 292° (WNW) 11:59:02 437.345 MHz
Oscar 16 22 Oct 11:55:33 11:57:21 12° 64° (ENE) 11:59:10 437.025 USB, Beacon 2401.1428
JAS-1B 22 Oct 12:24:23 12:28:54 22° 68° (ENE) 12:33:09 435.800 - 435.900 CW/SSB
PANSAT 22 Oct 12:33:34 12:36:39 23° 198° (SSW) 12:39:45 not established
Sapphire 22 Oct 12:44:58 12:48:59 21° 55° (NE) 12:52:58 437.095 MHz 1200 baud AX-25 AFSK
Oscar 19 22 Oct 12:46:03 12:50:50 40° 72° (ENE) 12:55:37 437.125 CW, 437.150 USB
KITSAT 1 22 Oct 12:51:55 12:59:49 56° 300° (WNW) 13:07:44 435.175 FM
AO-27 22 Oct 12:58:17 13:02:04 21° 68° (ENE) 13:05:53 436.795 MHz FM
PCSat 22 Oct 13:07:09 13:12:05 35° 59° (ENE) 13:16:59 145.825 MHz
ISS 22 Oct 13:18:42 13:21:46 34° 320° (NW) 13:24:51 145.800 FM
UOSAT-12 22 Oct 13:29:54 13:32:13 14° 107° (ESE) 13:34:33 437.025 FM, 437.400 FM
SO-50 22 Oct 13:30:07 13:34:20 41° 302° (WNW) 13:38:40 436.795 FM
Oscar 16 22 Oct 13:30:56 13:36:04 67° 258° (WSW) 13:41:13 437.025 USB, Beacon 2401.1428
Uribyol 2 22 Oct 13:45:44 13:50:53 68° 75° (ENE) 13:56:05 436.500 FM
AO-Echo 22 Oct 13:47:09 13:51:56 84° 77° (ENE) 13:56:55 ?
ITAMSAT 1 22 Oct 13:51:05 13:56:15 72° 75° (ENE) 14:01:27 435.822 SSB
